Fort Stockton, TX

11:22 AM CST on February 23, 2017 (GMT -0600)
Fort Stockton-Pecos County

Weather History for KFST - September, 2012

Change the Weather History Date:

Tuesday, September 4, 2012

  Actual Average Record
Temperature  
Mean Temperature 86 °F -  
Max Temperature 100 °F 88 °F 100 °F (2000)
Min Temperature 73 °F 65 °F 57 °F (2010)
Cooling Degree Days 22    
Growing Degree Days 36 (Base 50)    
Moisture  
Dew Point 57 °F    
Average Humidity 40    
Maximum Humidity 62    
Minimum Humidity 21    
Precipitation  
Precipitation 0.00 in - - ()
Sea Level Pressure  
Sea Level Pressure 29.80 in    
Wind  
Wind Speed 8 mph (SSE)    
Max Wind Speed 12 mph    
Max Gust Speed -    
Visibility 10 miles    
Events      
Averages and records for this station are not official NWS values.
T = Trace of Precipitation, MM = Missing Value Source: NWS Daily Summary

Daily Weather History Graph

Daily Weather History Graph

Search for Another Location

Airport or City:

Trip Planner

Search our weather history database for the weather conditions in past years. The results will help you decide how hot, cold, wet, or windy it might be!

Date:

Astronomy

Sep. 04, 2012 Rise Set
Actual Time 7:29 AM CDT 8:10 PM CDT
Civil Twilight 7:05 AM CDT 8:34 PM CDT
Nautical Twilight 6:36 AM CDT 9:03 PM CDT
Astronomical Twilight 6:07 AM CDT 9:33 PM CDT
Moon 10:27 PM CDT (9/4) 11:17 AM CDT (9/4)
Length of Visible Light 13h 29m
Length of Day
12h 40m
Waning Gibbous, 83% of the Moon is Illuminated
Sep 4
Waning Gibbous
Sep 8
Last Quarter
Sep 15
New
Sep 22
First Quarter
Sep 29
Full

Hourly Weather History & Observations

Time (CDT) Temp. Heat Index Dew Point Humidity Pressure Visibility Wind Dir Wind Speed Gust Speed Precip Events Conditions
12:53 AM 80.1 °F 80.7 °F 59.0 °F 48% 29.83 in 10.0 mi South 9.2 mph - N/A   Clear
1:53 AM 79.0 °F - 59.0 °F 50% 29.83 in 10.0 mi South 6.9 mph - N/A   Clear
2:53 AM 78.1 °F - 59.0 °F 52% 29.82 in 10.0 mi SSE 8.1 mph - N/A   Clear
3:53 AM 79.0 °F - 59.0 °F 50% 29.81 in 10.0 mi South 11.5 mph - N/A   Clear
4:53 AM 73.9 °F - 60.1 °F 62% 29.82 in 10.0 mi SSE 4.6 mph - N/A   Clear
5:53 AM 77.0 °F - 59.0 °F 54% 29.82 in 10.0 mi SW 8.1 mph - N/A   Clear
6:53 AM 75.0 °F - 59.0 °F 57% 29.83 in 10.0 mi SSW 11.5 mph - N/A   Clear
7:53 AM 73.9 °F - 59.0 °F 59% 29.85 in 10.0 mi South 10.4 mph - N/A   Clear
8:53 AM 78.1 °F - 60.1 °F 54% 29.86 in 10.0 mi SSE 5.8 mph - N/A   Clear
9:53 AM 86.0 °F 85.7 °F 60.1 °F 41% 29.86 in 10.0 mi SSW 6.9 mph - N/A   Clear
10:53 AM 90.0 °F 88.8 °F 57.9 °F 34% 29.86 in 10.0 mi Calm Calm - N/A   Clear
11:53 AM 93.0 °F 91.4 °F 55.9 °F 29% 29.85 in 10.0 mi Calm Calm - N/A   Clear
12:53 PM 95.0 °F 92.7 °F 54.0 °F 25% 29.83 in 10.0 mi Variable 4.6 mph - N/A   Clear
1:53 PM 97.0 °F - 52.0 °F 22% 29.80 in 10.0 mi Calm Calm - N/A   Clear
3:53 PM 100.0 °F 97.9 °F 53.1 °F 21% 29.75 in 10.0 mi ESE 9.2 mph - N/A   Mostly Cloudy
5:53 PM 96.1 °F 93.5 °F 53.1 °F 23% 29.73 in 10.0 mi SSE 6.9 mph - N/A   Clear
6:53 PM 96.1 °F 93.8 °F 54.0 °F 24% 29.72 in 10.0 mi South 4.6 mph - N/A   Clear
7:53 PM 95.0 °F 93.0 °F 55.0 °F 26% 29.72 in 10.0 mi SSE 8.1 mph - N/A   Clear
8:53 PM 90.0 °F 87.9 °F 55.0 °F 30% 29.74 in 10.0 mi SSE 6.9 mph - N/A   Clear
9:53 PM 88.0 °F 86.7 °F 57.0 °F 35% 29.76 in 10.0 mi SE 11.5 mph - N/A   Clear
10:53 PM 86.0 °F 85.4 °F 59.0 °F 40% 29.77 in 10.0 mi SSE 11.5 mph - N/A   Clear
11:53 PM 84.9 °F 84.8 °F 60.1 °F 43% 29.78 in 10.0 mi SSE 11.5 mph - N/A   Clear